Year,Month,Day,Hour,Minute,Value (Times are PST for barometer in hPa)
2016,03,13,00,00,1005.01
2016,03,13,00,01,1005.01
2016,03,13,00,02,1004.96
2016,03,13,00,03,1004.91
2016,03,13,00,04,1004.88
2016,03,13,00,05,1004.82
2016,03,13,00,06,1004.81
2016,03,13,00,07,1004.81
2016,03,13,00,08,1004.75
2016,03,13,00,09,1004.74
2016,03,13,00,10,1004.74
2016,03,13,00,11,1004.71
2016,03,13,00,12,1004.65
2016,03,13,00,13,1004.67
2016,03,13,00,14,1004.67
2016,03,13,00,15,1004.67
2016,03,13,00,16,1004.64
2016,03,13,00,17,1004.58
2016,03,13,00,18,1004.54
2016,03,13,00,19,1004.50
2016,03,13,00,20,1004.47
2016,03,13,00,21,1004.41
2016,03,13,00,22,1004.37
2016,03,13,00,23,1004.37
2016,03,13,00,24,1004.40
2016,03,13,00,25,1004.40
2016,03,13,00,26,1004.44
2016,03,13,00,27,1004.47
2016,03,13,00,28,1004.55
2016,03,13,00,29,1004.57
2016,03,13,00,30,1004.54
2016,03,13,00,31,1004.60
2016,03,13,00,32,1004.66
2016,03,13,00,33,1004.64
2016,03,13,00,34,1004.64
2016,03,13,00,35,1004.67
2016,03,13,00,36,1004.64
2016,03,13,00,37,1004.64
2016,03,13,00,38,1004.61
2016,03,13,00,39,1004.64
2016,03,13,00,40,1004.67
2016,03,13,00,41,1004.64
2016,03,13,00,42,1004.64
2016,03,13,00,43,1004.64
2016,03,13,00,44,1004.61
2016,03,13,00,45,1004.64
2016,03,13,00,46,1004.55
2016,03,13,00,47,1004.54
2016,03,13,00,48,1004.51
2016,03,13,00,49,1004.47
2016,03,13,00,50,1004.47
2016,03,13,00,51,1004.47
2016,03,13,00,52,1004.47
2016,03,13,00,53,1004.47
2016,03,13,00,54,1004.47
2016,03,13,00,55,1004.47
2016,03,13,00,56,1004.47
2016,03,13,00,57,1004.50
2016,03,13,00,58,1004.50
2016,03,13,00,59,1004.45
2016,03,13,01,00,1004.44
2016,03,13,01,01,1004.47
2016,03,13,01,02,1004.47
2016,03,13,01,03,1004.44
2016,03,13,01,04,1004.44
2016,03,13,01,05,1004.44
2016,03,13,01,06,1004.44
2016,03,13,01,07,1004.44
2016,03,13,01,08,1004.47
2016,03,13,01,09,1004.40
2016,03,13,01,10,1004.40
2016,03,13,01,11,1004.37
2016,03,13,01,12,1004.44
2016,03,13,01,13,1004.40
2016,03,13,01,14,1004.37
2016,03,13,01,15,1004.34
2016,03,13,01,16,1004.30
2016,03,13,01,17,1004.27
2016,03,13,01,18,1004.30
2016,03,13,01,19,1004.27
2016,03,13,01,20,1004.34
2016,03,13,01,21,1004.34
2016,03,13,01,22,1004.30
2016,03,13,01,23,1004.34
2016,03,13,01,24,1004.30
2016,03,13,01,25,1004.27
2016,03,13,01,26,1004.23
2016,03,13,01,27,1004.27
2016,03,13,01,28,1004.23
2016,03,13,01,29,1004.23
2016,03,13,01,30,1004.23
2016,03,13,01,31,1004.23
2016,03,13,01,32,1004.23
2016,03,13,01,33,1004.27
2016,03,13,01,34,1004.23
2016,03,13,01,35,1004.27
2016,03,13,01,36,1004.20
2016,03,13,01,37,1004.20
2016,03,13,01,38,1004.17
2016,03,13,01,39,1004.13
2016,03,13,01,40,1004.17
2016,03,13,01,41,1004.17
2016,03,13,01,42,1004.10
2016,03,13,01,43,1004.13
2016,03,13,01,44,1004.06
2016,03,13,01,45,1004.06
2016,03,13,01,46,1004.10
2016,03,13,01,47,1004.03
2016,03,13,01,48,1003.96
2016,03,13,01,49,1003.96
2016,03,13,01,50,1004.00
2016,03,13,01,51,1003.96
2016,03,13,01,52,1003.93
2016,03,13,01,53,1003.96
2016,03,13,01,54,1003.93
2016,03,13,01,55,1003.93
2016,03,13,01,56,1003.90
2016,03,13,01,57,1003.86
2016,03,13,01,58,1003.83
2016,03,13,01,59,1003.83
2016,03,13,03,00,1003.79
2016,03,13,03,01,1003.79
2016,03,13,03,02,1003.83
2016,03,13,03,03,1003.76
2016,03,13,03,04,1003.79
2016,03,13,03,05,1003.76
2016,03,13,03,06,1003.73
2016,03,13,03,07,1003.69
2016,03,13,03,08,1003.66
2016,03,13,03,09,1003.62
2016,03,13,03,10,1003.66
2016,03,13,03,11,1003.66
2016,03,13,03,12,1003.62
2016,03,13,03,13,1003.66
2016,03,13,03,14,1003.57
2016,03,13,03,15,1003.56
2016,03,13,03,16,1003.49
2016,03,13,03,17,1003.46
2016,03,13,03,18,1003.46
2016,03,13,03,19,1003.46
2016,03,13,03,20,1003.46
2016,03,13,03,21,1003.46
2016,03,13,03,22,1003.46
2016,03,13,03,23,1003.42
2016,03,13,03,24,1003.35
2016,03,13,03,25,1003.39
2016,03,13,03,26,1003.39
2016,03,13,03,27,1003.32
2016,03,13,03,28,1003.32
2016,03,13,03,29,1003.29
2016,03,13,03,30,1003.22
2016,03,13,03,31,1003.25
2016,03,13,03,32,1003.25
2016,03,13,03,33,1003.29
2016,03,13,03,34,1003.25
2016,03,13,03,35,1003.29
2016,03,13,03,36,1003.22
2016,03,13,03,37,1003.22
2016,03,13,03,38,1003.25
2016,03,13,03,39,1003.18
2016,03,13,03,40,1003.15
2016,03,13,03,41,1003.18
2016,03,13,03,42,1003.15
2016,03,13,03,43,1003.12
2016,03,13,03,44,1003.12
2016,03,13,03,45,1003.08
2016,03,13,03,46,1003.12
2016,03,13,03,47,1003.08
2016,03,13,03,48,1003.08
2016,03,13,03,49,1003.05
2016,03,13,03,50,1003.01
2016,03,13,03,51,1003.01
2016,03,13,03,52,1003.01
2016,03,13,03,53,1003.01
2016,03,13,03,54,1003.05
2016,03,13,03,55,1003.01
2016,03,13,03,56,1003.01
2016,03,13,03,57,1003.01
2016,03,13,03,58,1002.98
2016,03,13,03,59,1003.01
2016,03,13,04,00,1003.01
2016,03,13,04,01,1002.98
2016,03,13,04,02,1002.95
2016,03,13,04,03,1002.98
2016,03,13,04,04,1002.88
2016,03,13,04,05,1002.88
2016,03,13,04,06,1002.85
2016,03,13,04,07,1002.88
2016,03,13,04,08,1002.95
2016,03,13,04,09,1002.85
2016,03,13,04,10,1002.81
2016,03,13,04,11,1002.71
2016,03,13,04,12,1002.71
2016,03,13,04,13,1002.71
2016,03,13,04,14,1002.71
2016,03,13,04,15,1002.68
2016,03,13,04,16,1002.61
2016,03,13,04,17,1002.61
2016,03,13,04,18,1002.68
2016,03,13,04,19,1002.61
2016,03,13,04,20,1002.61
2016,03,13,04,21,1002.54
2016,03,13,04,22,1002.54
2016,03,13,04,23,1002.51
2016,03,13,04,24,1002.51
2016,03,13,04,25,1002.47
2016,03,13,04,26,1002.44
2016,03,13,04,27,1002.54
2016,03,13,04,28,1002.45
2016,03,13,04,29,1002.54
2016,03,13,04,30,1002.47
2016,03,13,04,31,1002.44
2016,03,13,04,32,1002.37
2016,03,13,04,33,1002.41
2016,03,13,04,34,1002.37
2016,03,13,04,35,1002.37
2016,03,13,04,36,1002.34
2016,03,13,04,37,1002.34
2016,03,13,04,38,1002.30
2016,03,13,04,39,1002.24
2016,03,13,04,40,1002.27
2016,03,13,04,41,1002.27
2016,03,13,04,42,1002.30
2016,03,13,04,43,1002.24
2016,03,13,04,44,1002.17
2016,03,13,04,45,1002.20
2016,03,13,04,46,1002.17
2016,03,13,04,47,1002.13
2016,03,13,04,48,1002.17
2016,03,13,04,49,1002.17
2016,03,13,04,50,1002.20
2016,03,13,04,51,1002.13
2016,03,13,04,52,1002.10
2016,03,13,04,53,1002.17
2016,03,13,04,54,1002.10
2016,03,13,04,55,1002.10
2016,03,13,04,56,1002.10
2016,03,13,04,57,1002.17
2016,03,13,04,58,1002.17
2016,03,13,04,59,1002.10
2016,03,13,05,00,1002.07
2016,03,13,05,01,1002.07
2016,03,13,05,02,1002.07
2016,03,13,05,03,1002.03
2016,03,13,05,04,1002.03
2016,03,13,05,05,1002.07
2016,03,13,05,06,1002.00
2016,03,13,05,07,1002.00
2016,03,13,05,08,1001.87
2016,03,13,05,09,1001.86
2016,03,13,05,10,1001.83
2016,03,13,05,11,1001.83
2016,03,13,05,12,1001.76
2016,03,13,05,13,1001.83
2016,03,13,05,14,1001.90
2016,03,13,05,15,1001.83
2016,03,13,05,16,1001.83
2016,03,13,05,17,1001.83
2016,03,13,05,18,1001.83
2016,03,13,05,19,1001.70
2016,03,13,05,20,1001.69
2016,03,13,05,21,1001.59
2016,03,13,05,22,1001.66
2016,03,13,05,23,1001.63
2016,03,13,05,24,1001.66
2016,03,13,05,25,1001.59
2016,03,13,05,26,1001.56
2016,03,13,05,27,1001.68
2016,03,13,05,28,1001.66
2016,03,13,05,29,1001.63
2016,03,13,05,30,1001.66
2016,03,13,05,31,1001.63
2016,03,13,05,32,1001.56
2016,03,13,05,33,1001.56
2016,03,13,05,34,1001.49
2016,03,13,05,35,1001.56
2016,03,13,05,36,1001.56
2016,03,13,05,37,1001.52
2016,03,13,05,38,1001.52
2016,03,13,05,39,1001.46
2016,03,13,05,40,1001.42
2016,03,13,05,41,1001.39
2016,03,13,05,42,1001.42
2016,03,13,05,43,1001.42
2016,03,13,05,44,1001.46
2016,03,13,05,45,1001.46
2016,03,13,05,46,1001.42
2016,03,13,05,47,1001.46
2016,03,13,05,48,1001.36
2016,03,13,05,49,1001.32
2016,03,13,05,50,1001.32
2016,03,13,05,51,1001.25
2016,03,13,05,52,1001.29
2016,03,13,05,53,1001.19
2016,03,13,05,54,1001.22
2016,03,13,05,55,1001.22
2016,03,13,05,56,1001.15
2016,03,13,05,57,1001.12
2016,03,13,05,58,1001.08
2016,03,13,05,59,1001.08
2016,03,13,06,00,1001.12
2016,03,13,06,01,1001.08
2016,03,13,06,02,1001.15
2016,03,13,06,03,1001.05
2016,03,13,06,04,1001.08
2016,03,13,06,05,1001.05
2016,03,13,06,06,1001.08
2016,03,13,06,07,1001.15
2016,03,13,06,08,1001.15
2016,03,13,06,09,1001.08
2016,03,13,06,10,1001.12
2016,03,13,06,11,1001.08
2016,03,13,06,12,1001.12
2016,03,13,06,13,1001.02
2016,03,13,06,14,1001.14
2016,03,13,06,15,1001.05
2016,03,13,06,16,1001.08
2016,03,13,06,17,1001.02
2016,03,13,06,18,1001.05
2016,03,13,06,19,1000.98
2016,03,13,06,20,1000.95
2016,03,13,06,21,1000.98
2016,03,13,06,22,1001.02
2016,03,13,06,23,1000.95
2016,03,13,06,24,1000.95
2016,03,13,06,25,1000.79
2016,03,13,06,26,1000.92
2016,03,13,06,27,1000.81
2016,03,13,06,28,1000.81
2016,03,13,06,29,1000.75
2016,03,13,06,30,1000.71
2016,03,13,06,31,1000.71
2016,03,13,06,32,1000.75
2016,03,13,06,33,1000.68
2016,03,13,06,34,1000.75
2016,03,13,06,35,1000.65
2016,03,13,06,36,1000.68
2016,03,13,06,37,1000.54
2016,03,13,06,38,1000.54
2016,03,13,06,39,1000.48
2016,03,13,06,40,1000.48
2016,03,13,06,41,1000.48
2016,03,13,06,42,1000.35
2016,03,13,06,43,1000.37
2016,03,13,06,44,1000.37
2016,03,13,06,45,1000.37
2016,03,13,06,46,1000.28
2016,03,13,06,47,1000.27
2016,03,13,06,48,1000.27
2016,03,13,06,49,1000.20
2016,03,13,06,50,1000.17
2016,03,13,06,51,1000.14
2016,03,13,06,52,1000.14
2016,03,13,06,53,1000.14
2016,03,13,06,54,1000.24
2016,03,13,06,55,1000.14
2016,03,13,06,56,1000.14
2016,03,13,06,57,1000.01
2016,03,13,06,58,999.93
2016,03,13,06,59,999.90
2016,03,13,07,00,999.87
2016,03,13,07,01,999.87
2016,03,13,07,02,999.83
2016,03,13,07,03,999.80
2016,03,13,07,04,999.73
2016,03,13,07,05,999.66
2016,03,13,07,06,999.76
2016,03,13,07,07,999.64
2016,03,13,07,08,999.59
2016,03,13,07,09,999.53
2016,03,13,07,10,999.49
2016,03,13,07,11,999.40
2016,03,13,07,12,999.39
2016,03,13,07,13,999.36
2016,03,13,07,14,999.32
2016,03,13,07,15,999.26
2016,03,13,07,16,999.19
2016,03,13,07,17,999.15
2016,03,13,07,18,999.09
2016,03,13,07,19,999.02
2016,03,13,07,20,999.09
2016,03,13,07,21,999.09
2016,03,13,07,22,999.09
2016,03,13,07,23,999.12
2016,03,13,07,24,999.03
2016,03,13,07,25,999.02
2016,03,13,07,26,998.92
2016,03,13,07,27,998.95
2016,03,13,07,28,998.88
2016,03,13,07,29,998.88
2016,03,13,07,30,998.85
2016,03,13,07,31,998.78
2016,03,13,07,32,998.71
2016,03,13,07,33,998.61
2016,03,13,07,34,998.71
2016,03,13,07,35,998.68
2016,03,13,07,36,998.61
2016,03,13,07,37,998.71
2016,03,13,07,38,998.52
2016,03,13,07,39,998.54
2016,03,13,07,40,998.45
2016,03,13,07,41,998.38
2016,03,13,07,42,998.41
2016,03,13,07,43,998.34
2016,03,13,07,44,998.41
2016,03,13,07,45,998.44
2016,03,13,07,46,998.41
2016,03,13,07,47,998.44
2016,03,13,07,48,998.27
2016,03,13,07,49,998.31
2016,03,13,07,50,998.38
2016,03,13,07,51,998.28
2016,03,13,07,52,998.31
2016,03,13,07,53,998.18
2016,03,13,07,54,998.14
2016,03,13,07,55,998.07
2016,03,13,07,56,997.97
2016,03,13,07,57,998.00
2016,03,13,07,58,997.94
2016,03,13,07,59,997.90
2016,03,13,08,00,997.87
2016,03,13,08,01,997.87
2016,03,13,08,02,997.90
2016,03,13,08,03,997.90
2016,03,13,08,04,997.87
2016,03,13,08,05,997.87
2016,03,13,08,06,997.83
2016,03,13,08,07,997.77
2016,03,13,08,08,997.70
2016,03,13,08,09,997.63
2016,03,13,08,10,997.63
2016,03,13,08,11,997.60
2016,03,13,08,12,997.60
2016,03,13,08,13,997.47
2016,03,13,08,14,997.50
2016,03,13,08,15,997.43
2016,03,13,08,16,997.39
2016,03,13,08,17,997.36
2016,03,13,08,18,997.36
2016,03,13,08,19,997.27
2016,03,13,08,20,997.22
2016,03,13,08,21,997.22
2016,03,13,08,22,997.22
2016,03,13,08,23,997.22
2016,03,13,08,24,997.16
2016,03,13,08,25,997.03
2016,03,13,08,26,996.99
2016,03,13,08,27,996.95
2016,03,13,08,28,996.92
2016,03,13,08,29,996.83
2016,03,13,08,30,996.82
2016,03,13,08,31,996.78
2016,03,13,08,32,996.72
2016,03,13,08,33,996.77
2016,03,13,08,34,996.82
2016,03,13,08,35,996.85
2016,03,13,08,36,996.78
2016,03,13,08,37,996.78
2016,03,13,08,38,996.78
2016,03,13,08,39,996.75
2016,03,13,08,40,996.72
2016,03,13,08,41,996.72
2016,03,13,08,42,996.68
2016,03,13,08,43,996.65
2016,03,13,08,44,996.52
2016,03,13,08,45,996.55
2016,03,13,08,46,996.51
2016,03,13,08,47,996.45
2016,03,13,08,48,996.41
2016,03,13,08,49,996.41
2016,03,13,08,50,996.41
2016,03,13,08,51,996.34
2016,03,13,08,52,996.41
2016,03,13,08,53,996.34
2016,03,13,08,54,996.28
2016,03,13,08,55,996.31
2016,03,13,08,56,996.28
2016,03,13,08,57,996.21
2016,03,13,08,58,996.17
2016,03,13,08,59,996.17
2016,03,13,09,00,996.11
2016,03,13,09,01,996.02
2016,03,13,09,02,996.01
2016,03,13,09,03,996.04
2016,03,13,09,04,995.95
2016,03,13,09,05,995.94
2016,03,13,09,06,995.90
2016,03,13,09,07,995.80
2016,03,13,09,08,995.77
2016,03,13,09,09,995.77
2016,03,13,09,10,995.70
2016,03,13,09,11,995.70
2016,03,13,09,12,995.70
2016,03,13,09,13,995.63
2016,03,13,09,14,995.53
2016,03,13,09,15,995.53
2016,03,13,09,16,995.50
2016,03,13,09,17,995.46
2016,03,13,09,18,995.40
2016,03,13,09,19,995.33
2016,03,13,09,20,995.29
2016,03,13,09,21,995.20
2016,03,13,09,22,995.28
2016,03,13,09,23,995.17
2016,03,13,09,24,995.07
2016,03,13,09,25,995.12
2016,03,13,09,26,995.09
2016,03,13,09,27,994.99
2016,03,13,09,28,994.96
2016,03,13,09,29,994.89
2016,03,13,09,30,994.85
2016,03,13,09,31,994.82
2016,03,13,09,32,994.79
2016,03,13,09,33,994.75
2016,03,13,09,34,994.66
2016,03,13,09,35,994.62
2016,03,13,09,36,994.58
2016,03,13,09,37,994.52
2016,03,13,09,38,994.42
2016,03,13,09,39,994.45
2016,03,13,09,40,994.32
2016,03,13,09,41,994.38
2016,03,13,09,42,994.38
2016,03,13,09,43,994.31
2016,03,13,09,44,994.31
2016,03,13,09,45,994.19
2016,03,13,09,46,994.14
2016,03,13,09,47,994.02
2016,03,13,09,48,994.01
2016,03,13,09,49,993.81
2016,03,13,09,50,993.77
2016,03,13,09,51,993.61
2016,03,13,09,52,993.57
2016,03,13,09,53,993.47
2016,03,13,09,54,993.40
2016,03,13,09,55,993.36
2016,03,13,09,56,993.27
2016,03,13,09,57,993.30
2016,03,13,09,58,993.33
2016,03,13,09,59,993.30
2016,03,13,10,00,993.33
2016,03,13,10,01,993.26
2016,03,13,10,02,993.26
2016,03,13,10,03,993.26
2016,03,13,10,04,993.20
2016,03,13,10,05,993.29
2016,03,13,10,06,993.20
2016,03,13,10,07,993.19
2016,03,13,10,08,993.23
2016,03,13,10,09,993.19
2016,03,13,10,10,993.16
2016,03,13,10,11,993.13
2016,03,13,10,12,993.09
2016,03,13,10,13,993.16
2016,03,13,10,14,993.13
2016,03,13,10,15,993.03
2016,03,13,10,16,993.09
2016,03,13,10,17,993.06
2016,03,13,10,18,993.03
2016,03,13,10,19,992.99
2016,03,13,10,20,993.03
2016,03,13,10,21,992.96
2016,03,13,10,22,992.86
2016,03,13,10,23,992.92
2016,03,13,10,24,992.86
2016,03,13,10,25,992.82
2016,03,13,10,26,992.75
2016,03,13,10,27,992.75
2016,03,13,10,28,992.72
2016,03,13,10,29,992.72
2016,03,13,10,30,992.72
2016,03,13,10,31,992.69
2016,03,13,10,32,992.72
2016,03,13,10,33,992.65
2016,03,13,10,34,992.58
2016,03,13,10,35,992.62
2016,03,13,10,36,992.55
2016,03,13,10,37,992.55
2016,03,13,10,38,992.55
2016,03,13,10,39,992.58
2016,03,13,10,40,992.58
2016,03,13,10,41,992.55
2016,03,13,10,42,992.58
2016,03,13,10,43,992.55
2016,03,13,10,44,992.52
2016,03,13,10,45,992.55
2016,03,13,10,46,992.52
2016,03,13,10,47,992.45
2016,03,13,10,48,992.48
2016,03,13,10,49,992.45
2016,03,13,10,50,992.48
2016,03,13,10,51,992.43
2016,03,13,10,52,992.42
2016,03,13,10,53,992.47
2016,03,13,10,54,992.39
2016,03,13,10,55,992.42
2016,03,13,10,56,992.42
2016,03,13,10,57,992.35
2016,03,13,10,58,992.38
2016,03,13,10,59,992.38
2016,03,13,11,00,992.35
2016,03,13,11,01,992.41
2016,03,13,11,02,992.45
2016,03,13,11,03,992.38
2016,03,13,11,04,992.38
2016,03,13,11,05,992.38
2016,03,13,11,06,992.38
2016,03,13,11,07,992.35
2016,03,13,11,08,992.35
2016,03,13,11,09,992.29
2016,03,13,11,10,992.18
2016,03,13,11,11,992.18
2016,03,13,11,12,992.14
2016,03,13,11,13,992.14
2016,03,13,11,14,992.14
2016,03,13,11,15,992.11
2016,03,13,11,16,992.14
2016,03,13,11,17,992.11
2016,03,13,11,18,992.11
2016,03,13,11,19,992.14
2016,03,13,11,20,992.09
2016,03,13,11,21,992.04
2016,03,13,11,22,992.01
2016,03,13,11,23,991.98
2016,03,13,11,24,991.98
2016,03,13,11,25,991.94
2016,03,13,11,26,991.94
2016,03,13,11,27,991.94
2016,03,13,11,28,991.94
2016,03,13,11,29,991.84
2016,03,13,11,30,991.84
2016,03,13,11,31,991.81
2016,03,13,11,32,991.75
2016,03,13,11,33,991.77
2016,03,13,11,34,991.74
2016,03,13,11,35,991.81
2016,03,13,11,36,991.77
2016,03,13,11,37,991.77
2016,03,13,11,38,991.74
2016,03,13,11,39,991.65
2016,03,13,11,40,991.73
2016,03,13,11,41,991.67
2016,03,13,11,42,991.76
2016,03,13,11,43,991.58
2016,03,13,11,44,991.60
2016,03,13,11,45,991.57
2016,03,13,11,46,991.57
2016,03,13,11,47,991.53
2016,03,13,11,48,991.63
2016,03,13,11,49,991.54
2016,03,13,11,50,991.53
2016,03,13,11,51,991.57
2016,03,13,11,52,991.57
2016,03,13,11,53,991.57
2016,03,13,11,54,991.57
2016,03,13,11,55,991.57
2016,03,13,11,56,991.57
2016,03,13,11,57,991.57
2016,03,13,11,58,991.57
2016,03,13,11,59,991.50
2016,03,13,12,00,991.47
2016,03,13,12,01,991.43
2016,03,13,12,02,991.43
2016,03,13,12,03,991.43
2016,03,13,12,04,991.40
2016,03,13,12,05,991.37
2016,03,13,12,06,991.33
2016,03,13,12,07,991.37
2016,03,13,12,08,991.27
2016,03,13,12,09,991.26
2016,03,13,12,10,991.30
2016,03,13,12,11,991.37
2016,03,13,12,12,991.31
2016,03,13,12,13,991.26
2016,03,13,12,14,991.23
2016,03,13,12,15,991.20
2016,03,13,12,16,991.26
2016,03,13,12,17,991.20
2016,03,13,12,18,991.07
2016,03,13,12,19,991.15
2016,03,13,12,20,991.13
2016,03,13,12,21,991.16
2016,03,13,12,22,991.10
2016,03,13,12,23,991.09
2016,03,13,12,24,991.13
2016,03,13,12,25,991.07
2016,03,13,12,26,991.06
2016,03,13,12,27,991.09
2016,03,13,12,28,990.97
2016,03,13,12,29,990.93
2016,03,13,12,30,990.98
2016,03,13,12,31,990.90
2016,03,13,12,32,990.86
2016,03,13,12,33,990.89
2016,03,13,12,34,990.93
2016,03,13,12,35,990.89
2016,03,13,12,36,990.89
2016,03,13,12,37,990.86
2016,03,13,12,38,990.80
2016,03,13,12,39,990.82
2016,03,13,12,40,990.73
2016,03,13,12,41,990.69
2016,03,13,12,42,990.60
2016,03,13,12,43,990.52
2016,03,13,12,44,990.46
2016,03,13,12,45,990.45
2016,03,13,12,46,990.42
2016,03,13,12,47,990.38
2016,03,13,12,48,990.38
2016,03,13,12,49,990.42
2016,03,13,12,50,990.36
2016,03,13,12,51,990.26
2016,03,13,12,52,990.25
2016,03,13,12,53,990.25
2016,03,13,12,54,990.06
2016,03,13,12,55,989.95
2016,03,13,12,56,989.91
2016,03,13,12,57,989.91
2016,03,13,12,58,989.82
2016,03,13,12,59,989.72
2016,03,13,13,00,989.65
2016,03,13,13,01,989.60
2016,03,13,13,02,989.64
2016,03,13,13,03,989.54
2016,03,13,13,04,989.50
2016,03,13,13,05,989.41
2016,03,13,13,06,989.40
2016,03,13,13,07,989.37
2016,03,13,13,08,989.28
2016,03,13,13,09,989.23
2016,03,13,13,10,989.04
2016,03,13,13,11,988.96
2016,03,13,13,12,988.90
2016,03,13,13,13,988.86
2016,03,13,13,14,988.83
2016,03,13,13,15,988.79
2016,03,13,13,16,988.83
2016,03,13,13,17,988.76
2016,03,13,13,18,988.76
2016,03,13,13,19,988.72
2016,03,13,13,20,988.67
2016,03,13,13,21,988.60
2016,03,13,13,22,988.49
2016,03,13,13,23,988.58
2016,03,13,13,24,988.62
2016,03,13,13,25,988.59
2016,03,13,13,26,988.55
2016,03,13,13,27,988.50
2016,03,13,13,28,988.49
2016,03,13,13,29,988.49
2016,03,13,13,30,988.30
2016,03,13,13,31,988.18
2016,03,13,13,32,988.18
2016,03,13,13,33,988.15
2016,03,13,13,34,988.06
2016,03,13,13,35,987.96
2016,03,13,13,36,987.85
2016,03,13,13,37,987.84
2016,03,13,13,38,987.88
2016,03,13,13,39,987.75
2016,03,13,13,40,987.87
2016,03,13,13,41,987.73
2016,03,13,13,42,987.58
2016,03,13,13,43,987.54
2016,03,13,13,44,987.57
2016,03,13,13,45,987.42
2016,03,13,13,46,987.40
2016,03,13,13,47,987.35
2016,03,13,13,48,987.30
2016,03,13,13,49,987.21
2016,03,13,13,50,987.20
2016,03,13,13,51,987.01
2016,03,13,13,52,987.03
2016,03,13,13,53,987.00
2016,03,13,13,54,986.96
2016,03,13,13,55,986.91
2016,03,13,13,56,986.90
2016,03,13,13,57,986.86
2016,03,13,13,58,986.80
2016,03,13,13,59,986.70
2016,03,13,14,00,986.58
2016,03,13,14,01,986.59
2016,03,13,14,02,986.53
2016,03,13,14,03,986.49
2016,03,13,14,04,986.43
2016,03,13,14,05,986.33
2016,03,13,14,06,986.38
2016,03,13,14,07,986.35
2016,03,13,14,08,986.20
2016,03,13,14,09,986.13
2016,03,13,14,10,986.12
2016,03,13,14,11,986.06
2016,03,13,14,12,985.96
2016,03,13,14,13,985.98
2016,03,13,14,14,985.98
2016,03,13,14,15,985.86
2016,03,13,14,16,985.75
2016,03,13,14,17,985.80
2016,03,13,14,18,985.72
2016,03,13,14,19,985.71
2016,03,13,14,20,985.58
2016,03,13,14,21,985.54
2016,03,13,14,22,985.54
2016,03,13,14,23,985.51
2016,03,13,14,24,985.51
2016,03,13,14,25,985.47
2016,03,13,14,26,985.41
2016,03,13,14,27,985.41
2016,03,13,14,28,985.41
2016,03,13,14,29,985.44
2016,03,13,14,30,985.47
2016,03,13,14,31,985.56
2016,03,13,14,32,985.39
2016,03,13,14,33,985.31
2016,03,13,14,34,985.30
2016,03,13,14,35,985.25
2016,03,13,14,36,985.20
2016,03,13,14,37,985.14
2016,03,13,14,38,985.10
2016,03,13,14,39,985.04
2016,03,13,14,40,985.03
2016,03,13,14,41,985.03
2016,03,13,14,42,984.98
2016,03,13,14,43,984.93
2016,03,13,14,44,984.81
2016,03,13,14,45,984.80
2016,03,13,14,46,984.74
2016,03,13,14,47,984.64
2016,03,13,14,48,984.66
2016,03,13,14,49,984.57
2016,03,13,14,50,984.50
2016,03,13,14,51,984.22
2016,03,13,14,52,984.13
2016,03,13,14,53,984.29
2016,03,13,14,54,984.29
2016,03,13,14,55,984.35
2016,03,13,14,56,984.17
2016,03,13,14,57,984.24
2016,03,13,14,58,984.20
2016,03,13,14,59,984.15
2016,03,13,15,00,984.00
2016,03,13,15,01,984.07
2016,03,13,15,02,983.98
2016,03,13,15,03,983.93
2016,03,13,15,04,983.82
2016,03,13,15,05,983.75
2016,03,13,15,06,983.69
2016,03,13,15,07,983.86
2016,03,13,15,08,983.61
2016,03,13,15,09,983.67
2016,03,13,15,10,983.71
2016,03,13,15,11,983.71
2016,03,13,15,12,983.75
2016,03,13,15,13,983.71
2016,03,13,15,14,983.71
2016,03,13,15,15,983.65
2016,03,13,15,16,983.74
2016,03,13,15,17,983.65
2016,03,13,15,18,983.68
2016,03,13,15,19,983.59
2016,03,13,15,20,983.58
2016,03,13,15,21,983.61
2016,03,13,15,22,983.58
2016,03,13,15,23,983.54
2016,03,13,15,24,983.73
2016,03,13,15,25,983.71
2016,03,13,15,26,983.71
2016,03,13,15,27,983.90
2016,03,13,15,28,983.77
2016,03,13,15,29,983.90
2016,03,13,15,30,984.01
2016,03,13,15,31,983.96
2016,03,13,15,32,984.04
2016,03,13,15,33,984.11
2016,03,13,15,34,984.15
2016,03,13,15,35,984.15
2016,03,13,15,36,984.21
2016,03,13,15,37,984.19
2016,03,13,15,38,984.24
2016,03,13,15,39,984.22
2016,03,13,15,40,984.28
2016,03,13,15,41,984.32
2016,03,13,15,42,984.26
2016,03,13,15,43,984.31
2016,03,13,15,44,984.36
2016,03,13,15,45,984.32
2016,03,13,15,46,984.25
2016,03,13,15,47,984.29
2016,03,13,15,48,984.29
2016,03,13,15,49,984.29
2016,03,13,15,50,984.38
2016,03,13,15,51,984.33
2016,03,13,15,52,984.32
2016,03,13,15,53,984.32
2016,03,13,15,54,984.32
2016,03,13,15,55,984.36
2016,03,13,15,56,984.45
2016,03,13,15,57,984.42
2016,03,13,15,58,984.52
2016,03,13,15,59,984.65
2016,03,13,16,00,984.69
2016,03,13,16,01,984.66
2016,03,13,16,02,984.69
2016,03,13,16,03,984.69
2016,03,13,16,04,984.60
2016,03,13,16,05,984.56
2016,03,13,16,06,984.43
2016,03,13,16,07,984.46
2016,03,13,16,08,984.46
2016,03,13,16,09,984.55
2016,03,13,16,10,984.56
2016,03,13,16,11,984.59
2016,03,13,16,12,984.54
2016,03,13,16,13,984.58
2016,03,13,16,14,984.56
2016,03,13,16,15,984.53
2016,03,13,16,16,984.56
2016,03,13,16,17,984.56
2016,03,13,16,18,984.59
2016,03,13,16,19,984.63
2016,03,13,16,20,984.63
2016,03,13,16,21,984.66
2016,03,13,16,22,984.72
2016,03,13,16,23,984.76
2016,03,13,16,24,984.80
2016,03,13,16,25,984.80
2016,03,13,16,26,984.80
2016,03,13,16,27,984.89
2016,03,13,16,28,984.96
2016,03,13,16,29,985.02
2016,03,13,16,30,985.07
2016,03,13,16,31,985.03
2016,03,13,16,32,985.09
2016,03,13,16,33,985.19
2016,03,13,16,34,985.24
2016,03,13,16,35,985.29
2016,03,13,16,36,985.34
2016,03,13,16,37,985.42
2016,03,13,16,38,985.47
2016,03,13,16,39,985.53
2016,03,13,16,40,985.60
2016,03,13,16,41,985.70
2016,03,13,16,42,985.74
2016,03,13,16,43,985.78
2016,03,13,16,44,985.81
2016,03,13,16,45,985.81
2016,03,13,16,46,985.81
2016,03,13,16,47,985.81
2016,03,13,16,48,985.85
2016,03,13,16,49,985.88
2016,03,13,16,50,985.85
2016,03,13,16,51,985.81
2016,03,13,16,52,985.87
2016,03,13,16,53,985.97
2016,03,13,16,54,986.02
2016,03,13,16,55,986.05
2016,03,13,16,56,986.05
2016,03,13,16,57,986.11
2016,03,13,16,58,986.00
2016,03,13,16,59,986.16
2016,03,13,17,00,986.28
2016,03,13,17,01,986.14
2016,03,13,17,02,986.15
2016,03,13,17,03,986.21
2016,03,13,17,04,986.28
2016,03,13,17,05,986.38
2016,03,13,17,06,986.35
2016,03,13,17,07,986.32
2016,03,13,17,08,986.49
2016,03,13,17,09,986.58
2016,03,13,17,10,986.59
2016,03,13,17,11,986.71
2016,03,13,17,12,986.82
2016,03,13,17,13,986.89
2016,03,13,17,14,986.99
2016,03,13,17,15,987.03
2016,03,13,17,16,987.06
2016,03,13,17,17,987.09
2016,03,13,17,18,987.22
2016,03,13,17,19,987.14
2016,03,13,17,20,987.26
2016,03,13,17,21,987.36